Weather in Shantobe

Kazakhstan     52°27′12″N   68°10′24″E
temp.,
°C
wind,
m/s
gust,
m/s
humid.,
%
clouds,
%
prec.,
mm/h
press.,
hPa
HPBL,
m
20 april, tue
tue2000:00−4ne474710 0.0 10311136
03:00−4ne48450 0.0 10311131
06:00−5ne47420 0.0 10321104
09:00−4ne57340 0.0 10331227
12:00−1ne56290 0.0 10321489
15:00+1ne45280 0.0 10311591
18:00+2nne44300 0.0 10301507
21:00−1nne33470 0.0 103149
21 april, wed
wed2100:00−2n22500 0.0 103140
03:00−2wnw11475 0.0 103112
06:00−2wnw35504 0.0 1031123
09:00+1wnw58413 0.0 1031467
12:00+6nw68375 0.0 10301182
15:00+8nnw68406 0.0 10291690
18:00+9nnw6744100 0.0 10301793
21:00+5nne366818 0.0 1033130
22 april, thu
thu2200:00+3nne22755 0.0 103418
03:00+2nne22780 0.0 103615
06:00+1ene22800 0.0 103718
09:00+4e22550 0.0 1039336
12:00+7e23421 0.0 10391194
15:00+9ese33360 0.0 10391440
18:00+10se32362 0.0 10391489
21:00+6se365116 0.0 1040112
23 april, fri
fri2300:00+4se410587 0.0 1040240
03:00+2se39688 0.0 1041229
06:000se387058 0.0 1041162
09:00+4se575467 0.0 1041421
12:00+7sse663924 0.0 10401016
15:00+10sse663189 0.0 10381367
18:00+10sse5630100 0.0 10371402
21:00+7se384699 0.0 1037181
24 april, sat
sat2400:00+5se3952100 0.0 1036211
03:00+3se41158100 0.0 1035221
06:00+2se41065100 0.0 1035212
09:00+5se6104874 0.0 1034404
12:00+10sse7932100 0.0 10321138
15:00+12sse7827100 0.0 10301572
18:00+12sse6829100 0.0 10281709
21:00+9se51140100 0.0 1027330